Location: Cisewo
(53.3833°N, 14.9000°E)
Time: 14:36:35
(UTC+00:00)

NOAA 18 - Pass Details

Date: 26 September 2021
Orbit: 841 x 860 km, 99.0° (Epoch: 25 October)

Event Time Altitude Azimuth Distance (km) Brightness Sun altitude
Exits shadow 17:49:32 - 75° (ENE) 2,543 7.1 -9.8°
Reaches altitude 10° 17:49:53 10° 71° (ENE) 2,476 7.1 -9.9°
Maximum altitude 17:52:24 13° 44° (NE) 2,243 7.1 -10.3°
Drops below altitude 10° 17:54:56 10° 16° (NNE) 2,487 7.6 -10.6°
Sets 17:58:35 0° 351° (N) 3,432 8.7 -11.2°
